Weather History for KRST - August, 2014

Change the Weather History Date:

Thursday, August 28, 2014

  Actual Average Record
Temperature  
Mean Temperature 62 °F 68 °F  
Max Temperature 67 °F 77 °F 96 °F (1955)
Min Temperature 57 °F 58 °F 36 °F (1893)
Degree Days  
Heating Degree Days 3 1  
Month to date heating degree days 3 25  
Since 1 July heating degree days 25 36  
Cooling Degree Days 0 4  
Month to date cooling degree days 157 144  
Year to date cooling degree days 437 515  
Growing Degree Days 12 (Base 50)    
Moisture  
Dew Point 61 °F    
Average Humidity 90    
Maximum Humidity 93    
Minimum Humidity 87    
Precipitation  
Precipitation 1.14 in 0.14 in 2.19 in (1979)
Month to date precipitation 4.15 4.10  
Year to date precipitation 24.21 23.77  
Snow  
Snow 0.00 in 0.00 in 0.00 in (2012)
Month to date snowfall 0.0 0.0  
Since 1 July snowfall 0.0 0.0  
Snow Depth 0.00 in    
Sea Level Pressure  
Sea Level Pressure 30.02 in    
Wind  
Wind Speed 9 mph (SE)    
Max Wind Speed 16 mph    
Max Gust Speed 21 mph    
Visibility 4 miles    
Events Rain    
T = Trace of Precipitation, MM = Missing Value Source: NWS Daily Summary

Daily Weather History Graph

Daily Weather History Graph

Search for Another Location

Airport or City:

Trip Planner

Search our weather history database for the weather conditions in past years. The results will help you decide how hot, cold, wet, or windy it might be!

Date:

Astronomy

Aug. 28, 2014 Rise Set
Actual Time 6:28 AM CDT 7:52 PM CDT
Civil Twilight 5:58 AM CDT 8:22 PM CDT
Nautical Twilight 5:22 AM CDT 8:58 PM CDT
Astronomical Twilight 4:44 AM CDT 9:36 PM CDT
Moon 9:28 AM CDT 9:08 PM CDT
Length of Visible Light 14h 23m
Length of Day
13h 23m
Waxing Crescent, 9% of the Moon is Illuminated
Aug 28
Waxing Crescent
Sep 2
First Quarter
Sep 8
Full
Sep 15
Last Quarter
Sep 24
New

Hourly Weather History & Observations

Time (CDT) Temp. Dew Point Humidity Pressure Visibility Wind Dir Wind Speed Gust Speed Precip Events Conditions
12:54 AM 59.0 °F 55.9 °F 90% 30.16 in 10.0 mi SE 3.5 mph - N/A   Clear
1:54 AM 57.9 °F 55.9 °F 93% 30.14 in 10.0 mi SSE 5.8 mph - N/A   Clear
2:54 AM 57.0 °F 55.0 °F 93% 30.12 in 10.0 mi ESE 3.5 mph - N/A   Clear
3:54 AM 57.0 °F 55.0 °F 93% 30.11 in 10.0 mi ESE 5.8 mph - N/A   Clear
4:54 AM 57.0 °F 55.0 °F 93% 30.10 in 10.0 mi East 4.6 mph - N/A   Clear
5:54 AM 57.9 °F 55.9 °F 93% 30.10 in 10.0 mi ESE 5.8 mph - N/A   Clear
6:54 AM 59.0 °F 57.0 °F 93% 30.11 in 10.0 mi SE 8.1 mph - N/A   Clear
7:54 AM 62.1 °F 59.0 °F 90% 30.11 in 10.0 mi SE 9.2 mph - N/A   Clear
8:54 AM 63.0 °F 60.1 °F 90% 30.11 in 10.0 mi SE 9.2 mph - N/A   Clear
9:54 AM 64.0 °F 61.0 °F 90% 30.10 in 8.0 mi SE 8.1 mph - 0.00 in   Mostly Cloudy
10:54 AM 64.9 °F 61.0 °F 87% 30.09 in 8.0 mi SSE 12.7 mph - 0.00 in Rain Light Rain
11:54 AM 64.0 °F 61.0 °F 90% 30.09 in 5.0 mi SSE 10.4 mph - 0.04 in Rain Light Rain
12:42 PM 64.0 °F 62.1 °F 93% 30.06 in 4.0 mi SE 10.4 mph - 0.03 in Rain Light Rain
12:54 PM 64.0 °F 62.1 °F 93% 30.06 in 3.0 mi SE 9.2 mph - 0.05 in Rain Rain
1:02 PM 64.9 °F 62.1 °F 90% 30.06 in 3.0 mi SE 9.2 mph - 0.01 in Rain Light Rain
1:10 PM 64.9 °F 62.1 °F 90% 30.06 in 3.0 mi SE 11.5 mph 18.4 mph 0.02 in Rain Light Rain
1:54 PM 64.9 °F 62.1 °F 90% 30.04 in 3.0 mi SE 10.4 mph - 0.06 in Rain Light Rain
2:54 PM 64.9 °F 62.1 °F 90% 30.01 in 4.0 mi SE 11.5 mph - 0.01 in Rain Light Rain
3:40 PM 64.9 °F 62.1 °F 90% 30.00 in 2.5 mi ESE 11.5 mph - 0.05 in Rain Rain
3:54 PM 64.9 °F 63.0 °F 93% 30.00 in 1.8 mi ESE 12.7 mph - 0.09 in Rain Rain
4:49 PM 64.4 °F 62.6 °F 94% 29.99 in 1.2 mi ESE 9.2 mph - 0.15 in Rain Heavy Rain
4:54 PM 64.0 °F 63.0 °F 96% 29.99 in 1.2 mi ESE 11.5 mph - 0.17 in Rain Heavy Rain
5:13 PM 64.9 °F 63.0 °F 93% 29.99 in 1.5 mi ESE 11.5 mph - 0.09 in Rain Rain
5:23 PM 64.0 °F 62.1 °F 93% 29.98 in 1.2 mi ESE 11.5 mph - 0.15 in Rain Heavy Rain
5:25 PM 64.0 °F 62.1 °F 93% 29.98 in 1.5 mi ESE 11.5 mph - 0.16 in Rain Heavy Rain
5:40 PM 64.0 °F 62.1 °F 93% 29.97 in 1.2 mi ESE 11.5 mph - 0.30 in Rain Heavy Rain
5:49 PM 64.4 °F 62.6 °F 94% 29.97 in 1.5 mi ESE 12.7 mph 20.7 mph 0.37 in Rain Heavy Rain
5:54 PM 64.9 °F 62.1 °F 90% 29.97 in 1.8 mi ESE 11.5 mph - 0.40 in Rain Heavy Rain
5:59 PM 64.9 °F 63.0 °F 93% 29.97 in 2.0 mi ESE 13.8 mph - 0.02 in Rain Rain
6:08 PM 64.9 °F 63.0 °F 93% 29.97 in 3.0 mi ESE 11.5 mph - 0.04 in Rain Light Rain
6:31 PM 64.9 °F 63.0 °F 93% 29.97 in 2.5 mi SE 10.4 mph - 0.08 in Rain Rain
6:45 PM 64.9 °F 63.0 °F 93% 29.97 in 1.5 mi SE 9.2 mph - 0.12 in Rain Rain
6:54 PM 64.9 °F 63.0 °F 93% 29.97 in 1.8 mi SE 12.7 mph - 0.15 in Rain Rain
7:01 PM 64.9 °F 63.0 °F 93% 29.97 in 2.0 mi SE 12.7 mph - 0.01 in Rain Light Rain
7:23 PM 64.9 °F 63.0 °F 93% 29.97 in 1.8 mi ESE 6.9 mph - 0.04 in Rain Light Rain
7:36 PM 64.9 °F 63.0 °F 93% 29.97 in 4.0 mi East 5.8 mph - 0.06 in Rain Light Rain
7:54 PM 64.9 °F 63.0 °F 93% 29.96 in 7.0 mi NE 3.5 mph - 0.07 in Rain Light Rain
8:54 PM 64.9 °F 63.0 °F 93% 29.95 in 2.5 mi East 9.2 mph - 0.06 in Rain Rain
9:06 PM 64.4 °F 62.6 °F 94% 29.95 in 4.0 mi East 8.1 mph - N/A Rain Light Rain
9:54 PM 66.0 °F 64.0 °F 93% 29.96 in 4.0 mi SE 6.9 mph - 0.02 in   Overcast
10:02 PM 66.0 °F 64.0 °F 93% 29.96 in 2.5 mi SE 8.1 mph - N/A   Overcast
10:42 PM 66.0 °F 64.0 °F 93% 29.96 in 1.8 mi SE 9.2 mph - 0.00 in   Overcast
10:54 PM 66.0 °F 64.0 °F 93% 29.94 in 1.5 mi SE 9.2 mph - 0.00 in   Overcast
11:54 PM 66.0 °F 64.9 °F 96% 29.93 in 1.2 mi SSE 9.2 mph - N/A   Overcast